Terug naar catalogus

ET-001D

ActiefSSO
NORAD 100100·PAYLOAD·🇺🇸 United States

Gelanceerd Jul 7, 2026 vanaf Vandenberg Space Force Base

Loading…

Volgende Passages (komende 24 uur)

TLE

VersSource: Space-Track

Epoch: Sep 14, 2026, 12:57 UTC

1 A0100U 26156CC  26257.54010544  .00005462  00000-0  53652-3 0  9997
2 A0100  97.7427 156.8698 0006347 289.4417  70.6116 14.92554096 10329

Volg ET-001D in realtime met AllMySat

Download on the App Store